Location: Most
(50.5133°N, 13.6207°E)
Time: 09:37:49
(UTC+02:00)

ISS - Pass Details

Date: 18 July 2018
Orbit: 402 x 408 km, 51.6° (Epoch: 17 July)

Event Time Altitude Azimuth Distance (km) Brightness Sun altitude
Exits shadow 02:22:47 - 274° (W) 1,886 -0.6 -16.7°
Reaches altitude 10° 02:23:48 10° 276° (W) 1,468 -1.1 -16.7°
Maximum altitude 02:27:05 70° 1° (N) 438 -3.6 -16.5°
Drops below altitude 10° 02:30:22 10° 86° (E) 1,470 -0.7 -16.3°
Sets 02:32:28 0° 88° (E) 2,332 0.3 -16.2°
